South Paris, Maine, United States (04281)
Lat: 44.22N, Lon: 70.51W
Wx Zone: MEZ012
Local Info
Past Weather Observations for Monday, May 25, 2015

NOTE: This archive is for the closest National Weather Service station to South Paris. Information may differ from the station used for current weather conditions.

Click here for Long-term Archive

Time Weather Temperature Dewpoint Humidity Pressure Winds Precip Visibility
23:55
Overcast
61°F / 16°C 54°F / 12°C 77% 30.06 in
(1018 mb)
SSE 9.2 mph
(SSE 15 kph)
- 10SM
23:35
Overcast
63°F / 17°C 52°F / 11°C 68% 30.09 in
(1019 mb)
SSE 8.1 mph
(SSE 13 kph)
- 10SM
23:15
Overcast
63°F / 17°C 52°F / 11°C 68% 30.09 in
(1019 mb)
SSE 5.8 mph
(SSE 9 kph)
- 10SM
22:55
Overcast
63°F / 17°C 52°F / 11°C 68% 30.09 in
(1019 mb)
SSE 4.6 mph
(SSE 7 kph)
- 10SM
22:35
Overcast
63°F / 17°C 52°F / 11°C 68% 30.09 in
(1019 mb)
SSE 6.9 mph
(SSE 11 kph)
- 10SM
22:15
Mostly Cloudy
64°F / 18°C 52°F / 11°C 64% 30.09 in
(1019 mb)
SSE 5.8 mph
(SSE 9 kph)
- 10SM
21:55
Partly Cloudy
64°F / 18°C 52°F / 11°C 64% 30.09 in
(1019 mb)
SSE 5.8 mph
(SSE 9 kph)
- 10SM
21:35
Mostly Cloudy
64°F / 18°C 52°F / 11°C 64% 30.09 in
(1019 mb)
SSE 6.9 mph
(SSE 11 kph)
- 10SM
21:15
Overcast
66°F / 19°C 52°F / 11°C 60% 30.12 in
(1020 mb)
SSE 6.9 mph
(SSE 11 kph)
- 10SM
20:55
Overcast
66°F / 19°C 52°F / 11°C 60% 30.12 in
(1020 mb)
SSE 4.6 mph
(SSE 7 kph)
- 10SM
20:35
Overcast
66°F / 19°C 54°F / 12°C 64% 30.12 in
(1020 mb)
SSE 4.6 mph
(SSE 7 kph)
- 10SM
20:15
Overcast
68°F / 20°C 52°F / 11°C 56% 30.12 in
(1020 mb)
SSE 5.8 mph
(SSE 9 kph)
- 10SM
19:55
Overcast
70°F / 21°C 52°F / 11°C 53% 30.12 in
(1020 mb)
SSE 4.6 mph
(SSE 7 kph)
- 10SM
19:35
Overcast
70°F / 21°C 54°F / 12°C 57% 30.12 in
(1020 mb)
SSE 6.9 mph
(SSE 11 kph)
- 10SM
19:15
Overcast
70°F / 21°C 54°F / 12°C 57% 30.12 in
(1020 mb)
SE 5.8 mph
(SE 9 kph)
- 10SM
18:55
Overcast
72°F / 22°C 54°F / 12°C 53% 30.12 in
(1020 mb)
SE 5.8 mph
(SE 9 kph)
- 10SM
18:35
Overcast
72°F / 22°C 54°F / 12°C 53% 30.12 in
(1020 mb)
Calm - 5SM
18:15
Mostly Cloudy
72°F / 22°C 54°F / 12°C 53% 30.12 in
(1020 mb)
SE 4.6 mph
(SE 7 kph)
- 6SM
17:55
Partly Cloudy
72°F / 22°C 54°F / 12°C 53% 30.12 in
(1020 mb)
SE 5.8 mph
(SE 9 kph)
- 10SM
17:35
Partly Cloudy
72°F / 22°C 54°F / 12°C 53% 30.12 in
(1020 mb)
S 3.5 mph
(S 6 kph)
- 10SM
17:15
Partly Cloudy
73°F / 23°C 54°F / 12°C 50% 30.12 in
(1020 mb)
SSE 4.6 mph
(SSE 7 kph)
- 10SM
16:55
Partly Cloudy
73°F / 23°C 54°F / 12°C 50% 30.15 in
(1021 mb)
SW 4.6 mph
(SW 7 kph)
- 10SM
16:35
Clear
73°F / 23°C 54°F / 12°C 50% 30.15 in
(1021 mb)
SW 5.8 mph
(SW 9 kph)
- 10SM
16:15
Partly Cloudy
75°F / 24°C 52°F / 11°C 44% 30.15 in
(1021 mb)
SW 6.9 mph
(SW 11 kph)
- 10SM
15:55
Partly Cloudy
75°F / 24°C 52°F / 11°C 44% 30.15 in
(1021 mb)
SW 6.9 mph
(SW 11 kph)
- 10SM
15:35
Partly Cloudy
75°F / 24°C 52°F / 11°C 44% 30.15 in
(1021 mb)
SW 9.2 mph
(SW 15 kph)
- 10SM
15:15
Mostly Cloudy
75°F / 24°C 52°F / 11°C 44% 30.15 in
(1021 mb)
SW 12.7 mph
(SW 20 kph)
- 10SM
14:55
Partly Cloudy
75°F / 24°C 52°F / 11°C 44% 30.15 in
(1021 mb)
SW 11.5 mph
(SW 19 kph)
- 10SM
14:35
Partly Cloudy
77°F / 25°C 48°F / 9°C 36% 30.15 in
(1021 mb)
SW 16.1 mph
(SW 26 kph)
- 10SM
14:15
Mostly Cloudy
79°F / 26°C 48°F / 9°C 34% 30.15 in
(1021 mb)
SW 18.4 mph
(SW 30 kph)
- 10SM
13:55
Partly Cloudy
79°F / 26°C 50°F / 10°C 37% 30.15 in
(1021 mb)
SW 15 mph
(SW 24 kph)
- 10SM
13:35
Partly Cloudy
79°F / 26°C 52°F / 11°C 39% 30.15 in
(1021 mb)
SW 12.7 mph
(SW 20 kph)
- 10SM
13:15
Clear
79°F / 26°C 50°F / 10°C 37% 30.15 in
(1021 mb)
SW 10.4 mph
(SW 17 kph)
- 10SM
12:55
Partly Cloudy
79°F / 26°C 48°F / 9°C 34% 30.15 in
(1021 mb)
SW 13.8 mph
(SW 22 kph)
- 10SM
12:35
Partly Cloudy
79°F / 26°C 48°F / 9°C 34% 30.15 in
(1021 mb)
W 11.5 mph
(W 19 kph)
- 10SM
12:15
Mostly Cloudy
77°F / 25°C 48°F / 9°C 36% 30.15 in
(1021 mb)
SSW 8.1 mph
(SSW 13 kph)
- 10SM
11:55
Mostly Cloudy
75°F / 24°C 48°F / 9°C 39% 30.18 in
(1022 mb)
SSW 9.2 mph
(SSW 15 kph)
- 10SM
11:35
Partly Cloudy
77°F / 25°C 46°F / 8°C 34% 30.18 in
(1022 mb)
SW 8.1 mph
(SW 13 kph)
- 10SM
11:15
Overcast
77°F / 25°C 46°F / 8°C 34% 30.18 in
(1022 mb)
W 8.1 mph
(W 13 kph)
- 10SM
10:55
Overcast
75°F / 24°C 46°F / 8°C 36% 30.18 in
(1022 mb)
SSW 5.8 mph
(SSW 9 kph)
- 10SM
10:35
Overcast
75°F / 24°C 45°F / 7°C 34% 30.18 in
(1022 mb)
SSW 6.9 mph
(SSW 11 kph)
- 10SM
10:15
Mostly Cloudy
75°F / 24°C 46°F / 8°C 36% 30.18 in
(1022 mb)
SSW 9.2 mph
(SSW 15 kph)
- 10SM
09:55
Clear
75°F / 24°C 46°F / 8°C 36% 30.18 in
(1022 mb)
W 8.1 mph
(W 13 kph)
- 10SM
09:35
Clear
75°F / 24°C 48°F / 9°C 39% 30.18 in
(1022 mb)
SSW 6.9 mph
(SSW 11 kph)
- 10SM
09:15
Clear
73°F / 23°C 48°F / 9°C 41% 30.18 in
(1022 mb)
SSW 4.6 mph
(SSW 7 kph)
- 10SM
08:55
Clear
72°F / 22°C 48°F / 9°C 44% 30.18 in
(1022 mb)
SW 4.6 mph
(SW 7 kph)
- 10SM
08:35
Clear
68°F / 20°C 48°F / 9°C 49% 30.18 in
(1022 mb)
SSE 4.6 mph
(SSE 7 kph)
- 10SM
08:15
Clear
66°F / 19°C 48°F / 9°C 52% 30.18 in
(1022 mb)
S 3.5 mph
(S 6 kph)
- 10SM
07:55
Clear
64°F / 18°C 48°F / 9°C 56% 30.18 in
(1022 mb)
S 6.9 mph
(S 11 kph)
- 10SM
07:35
Clear
64°F / 18°C 46°F / 8°C 52% 30.18 in
(1022 mb)
S 5.8 mph
(S 9 kph)
- 10SM
07:15
Clear
63°F / 17°C 46°F / 8°C 56% 30.18 in
(1022 mb)
S 4.6 mph
(S 7 kph)
- 10SM
06:55
Clear
61°F / 16°C 46°F / 8°C 59% 30.18 in
(1022 mb)
S 5.8 mph
(S 9 kph)
- 10SM
06:35
Clear
57°F / 14°C 45°F / 7°C 63% 30.18 in
(1022 mb)
S 3.5 mph
(S 6 kph)
- 10SM
06:15
Clear
55°F / 13°C 46°F / 8°C 72% 30.18 in
(1022 mb)
S 3.5 mph
(S 6 kph)
- 10SM
05:55
Clear
54°F / 12°C 46°F / 8°C 77% 30.18 in
(1022 mb)
Calm - 10SM
05:35
Clear
52°F / 11°C 45°F / 7°C 77% 30.15 in
(1021 mb)
SSE 3.5 mph
(SSE 6 kph)
- 10SM
05:15
Clear
50°F / 10°C 43°F / 6°C 76% 30.15 in
(1021 mb)
Calm - 10SM
04:55
Clear
50°F / 10°C 43°F / 6°C 76% 30.15 in
(1021 mb)
Calm - 10SM
04:35
Clear
48°F / 9°C 41°F / 5°C 76% 30.15 in
(1021 mb)
Calm - 10SM
04:15
Clear
50°F / 10°C 43°F / 6°C 76% 30.15 in
(1021 mb)
Calm - 10SM
03:55
Clear
50°F / 10°C 43°F / 6°C 76% 30.15 in
(1021 mb)
Calm - 10SM
03:35
Clear
52°F / 11°C 43°F / 6°C 72% 30.15 in
(1021 mb)
Calm - 10SM
03:15
Clear
52°F / 11°C 43°F / 6°C 72% 30.15 in
(1021 mb)
Calm - 10SM
02:55
Clear
54°F / 12°C 43°F / 6°C 67% 30.15 in
(1021 mb)
Calm - 10SM
02:35
Clear
54°F / 12°C 43°F / 6°C 67% 30.15 in
(1021 mb)
Calm - 10SM
02:15
Clear
54°F / 12°C 43°F / 6°C 67% 30.15 in
(1021 mb)
Calm - 10SM
01:55
Clear
54°F / 12°C 43°F / 6°C 67% 30.15 in
(1021 mb)
Calm - 10SM
01:35
Clear
55°F / 13°C 41°F / 5°C 59% 30.15 in
(1021 mb)
Calm - 10SM
01:15
Clear
54°F / 12°C 43°F / 6°C 67% 30.15 in
(1021 mb)
SSE 3.5 mph
(SSE 6 kph)
- 10SM
00:55
Clear
57°F / 14°C 43°F / 6°C 59% 30.15 in
(1021 mb)
NNE 3.5 mph
(NNE 6 kph)
- 10SM
00:35
Clear
63°F / 17°C 39°F / 4°C 42% 30.15 in
(1021 mb)
Calm - 10SM
00:15
Clear
64°F / 18°C 39°F / 4°C 40% 30.15 in
(1021 mb)
S 4.6 mph
(S 7 kph)
- 10SM
Time Weather Temperature Dewpoint Humidity Pressure Winds Precip Visibility


Weather for websites

WeatherForYou.com, LLC is not responsible for any damages or problems caused by this service. Current weather conditions are obtained from the closest station including government and personal stations which may have varying degrees of accuracy. Weather forecasts are derived from the NOAA NDFD. Like all things, this site belongs to Jesus Christ... He just trusts us to maintain it. If you have any questions or comments email webmaster@weatherforyou.com

Copyright © 2015, WeatherForYou.com LLC. All rights reserved.